Regional Weather Roundup
Issued by NWS

Home | Current Version | Previous Version | Text Only | Print | Product List | Glossary Off
Versions: 1 2 3 4 5 6 7 8 9 10 11 12 13 14 15 16 17 18 19 20 21 22 23 24 25 26 27 28 29 30 31 32 33 34 35 36 37 38 39 40 41 42 43 44 45 46 47 48 49 50

392
ASUS43 KLMK 141402
RWRKY
KENTUCKY REGIONAL WEATHER ROUNDUP
NATIONAL WEATHER SERVICE LOUISVILLE KY
900 AM EST SUN FEB 14 2016

NOTE "FAIR" INDICATES FEW OR NO CLOUDS BELOW 12,000 FEET
WITH NO SIGNIFICANT WEATHER AND/OR OBSTRUCTIONS TO VISIBILITY.

KYZ001>023-026-027-061>063-070>075-141500-
WESTERN AND SOUTH CENTRAL KENTUCKY

CITY           SKY/WX    TMP DP  RH WIND       PRES   REMARKS
PADUCAH        CLOUDY    27  10  49 SE13      30.26F WCI  16
HENDERSON      CLOUDY    21  16  79 E15G21    30.32F WCI   8
OWENSBORO      CLOUDY    21  16  81 SE12      30.35F WCI   9
HOPKINSVILLE   CLOUDY    26  11  52 E15       30.29F WCI  13
BOWLING GREEN  FLURRIES  23  15  71 E12       30.36F WCI  12
GLASGOW        NOT AVBL
$$

KYZ024-025-028>034-038-045-046-053-141500-
NORTH CENTRAL KENTUCKY

CITY           SKY/WX    TMP DP  RH WIND       PRES   REMARKS
LOUISVILLE/SDF LGT SNOW  20  11  68 E9        30.43S WCI   9
LOUISVILLE/LOU LGT SNOW  19  11  70 E7        30.44R WCI  10
FORT KNOX      FLURRIES  19   9  66 E8        30.38R WCI   9
$$

KYZ035>037-039>044-047>052-055>060-089>105-141500-
NORTHEAST KENTUCKY

CITY           SKY/WX    TMP DP  RH WIND       PRES   REMARKS
LEXINGTON      CLOUDY    17   3  54 E10       30.40F WCI   5
COVINGTON      CLOUDY    15   5  64 SE10      30.42F WCI   2
FRANKFORT      CLOUDY    19   4  51 E7        30.42R WCI  10
$$

KYZ054-064>069-076>088-106>120-141500-
SOUTHEAST KENTUCKY

CITY           SKY/WX    TMP DP  RH WIND       PRES   REMARKS
JACKSON        CLOUDY    14   1  56 CALM      30.39F
LONDON         CLOUDY    19   4  51 E8        30.38F WCI   9
SOMERSET       NOT AVBL
MIDDLESBORO    NOT AVBL
MONTICELLO     FLURRIES  21   8  57 VRB3      30.39F
$$





USA.gov is the U.S. government's official web portal to all federal, state and local government web resources and services.